Time,TemperatureF,DewpointF,PressureIn,WindDirection,WindDirectionDegrees,WindSpeedMPH,WindSpeedGustMPH,Humidity,HourlyPrecipIn,Conditions,Clouds,dailyrainin,SoftwareType,DateUTC
2013-02-13 00:00:00,24.1,12.6,23.92,SSW,196,0.0,0.0,61,0.00,,CLR,0.00,VWS V14.01,2013-02-13 07:00:00,
2013-02-13 00:05:00,24.1,12.6,23.92,SSW,196,0.0,0.0,61,0.00,,CLR,0.00,VWS V14.01,2013-02-13 07:05:00,
2013-02-13 00:10:00,24.1,12.6,23.92,SSW,196,0.0,0.0,61,0.00,,CLR,0.00,VWS V14.01,2013-02-13 07:10:00,
2013-02-13 00:15:00,23.9,12.4,23.92,SSW,196,0.0,0.0,61,0.00,,CLR,0.00,VWS V14.01,2013-02-13 07:15:00,
2013-02-13 00:20:00,23.7,12.2,23.92,South,179,0.0,0.0,61,0.00,,CLR,0.00,VWS V14.01,2013-02-13 07:20:00,
2013-02-13 00:25:00,23.5,12.4,23.92,South,186,0.0,0.0,62,0.00,,CLR,0.00,VWS V14.01,2013-02-13 07:25:00,
2013-02-13 00:30:00,23.5,12.4,23.92,South,186,0.0,0.0,62,0.00,,CLR,0.00,VWS V14.01,2013-02-13 07:30:00,
2013-02-13 00:35:00,23.4,12.3,23.92,South,186,0.0,0.0,62,0.00,,CLR,0.00,VWS V14.01,2013-02-13 07:35:00,
2013-02-13 00:40:00,23.2,12.1,23.92,South,186,0.0,0.0,62,0.00,,CLR,0.00,VWS V14.01,2013-02-13 07:40:00,
2013-02-13 00:45:00,23.0,11.9,23.92,South,186,0.0,0.0,62,0.00,,CLR,0.00,VWS V14.01,2013-02-13 07:45:00,
2013-02-13 00:50:00,23.0,12.3,23.92,South,187,0.0,0.0,63,0.00,,CLR,0.00,VWS V14.01,2013-02-13 07:50:00,
2013-02-13 00:55:00,23.0,12.6,23.92,South,187,0.0,0.0,64,0.00,,CLR,0.00,VWS V14.01,2013-02-13 07:55:00,
2013-02-13 01:00:00,23.0,13.0,23.92,South,187,0.0,0.0,65,0.00,,CLR,0.00,VWS V14.01,2013-02-13 08:00:00,
2013-02-13 01:05:00,23.2,12.8,23.92,South,187,0.0,0.0,64,0.00,,CLR,0.00,VWS V14.01,2013-02-13 08:05:00,
2013-02-13 01:10:00,23.0,12.6,23.92,South,187,0.0,0.0,64,0.00,,CLR,0.00,VWS V14.01,2013-02-13 08:10:00,
2013-02-13 01:15:00,22.8,12.1,23.92,South,187,0.0,0.0,63,0.00,,CLR,0.00,VWS V14.01,2013-02-13 08:15:00,
2013-02-13 01:20:00,22.5,11.8,23.92,South,187,0.0,0.0,63,0.00,,CLR,0.00,VWS V14.01,2013-02-13 08:20:00,
2013-02-13 01:25:00,22.3,12.0,23.92,South,187,0.0,0.0,64,0.00,,CLR,0.00,VWS V14.01,2013-02-13 08:25:00,
2013-02-13 01:30:00,22.1,11.8,23.92,South,187,0.0,0.0,64,0.00,,CLR,0.00,VWS V14.01,2013-02-13 08:30:00,
2013-02-13 01:35:00,21.9,11.6,23.92,South,187,0.0,0.0,64,0.00,,CLR,0.00,VWS V14.01,2013-02-13 08:35:00,
2013-02-13 01:40:00,21.9,11.6,23.92,South,187,0.0,0.0,64,0.00,,CLR,0.00,VWS V14.01,2013-02-13 08:40:00,
2013-02-13 01:45:00,21.9,12.0,23.92,South,187,0.0,0.0,65,0.00,,CLR,0.00,VWS V14.01,2013-02-13 08:45:00,
2013-02-13 01:50:00,22.1,12.1,23.92,South,187,0.0,0.0,65,0.00,,CLR,0.00,VWS V14.01,2013-02-13 08:50:00,
2013-02-13 01:55:00,22.1,12.1,23.92,South,187,0.0,0.0,65,0.00,,CLR,0.00,VWS V14.01,2013-02-13 08:55:00,
2013-02-13 02:00:00,22.1,11.8,23.92,South,187,0.0,0.0,64,0.00,,CLR,0.00,VWS V14.01,2013-02-13 09:00:00,
2013-02-13 02:05:00,22.3,12.3,23.92,South,187,0.0,0.0,65,0.00,,CLR,0.00,VWS V14.01,2013-02-13 09:05:00,
2013-02-13 02:10:00,21.9,11.6,23.92,South,187,0.0,0.0,64,0.00,,CLR,0.00,VWS V14.01,2013-02-13 09:10:00,
2013-02-13 02:15:00,21.7,11.8,23.89,South,187,0.0,0.0,65,0.00,,CLR,0.00,VWS V14.01,2013-02-13 09:15:00,
2013-02-13 02:20:00,21.6,11.6,23.89,South,187,0.0,0.0,65,0.00,,CLR,0.00,VWS V14.01,2013-02-13 09:20:00,
2013-02-13 02:25:00,21.6,12.0,23.89,South,187,0.0,0.0,66,0.00,,CLR,0.00,VWS V14.01,2013-02-13 09:25:00,
2013-02-13 02:30:00,21.4,11.5,23.92,South,187,0.0,0.0,65,0.00,,CLR,0.00,VWS V14.01,2013-02-13 09:30:00,
2013-02-13 02:35:00,21.2,11.6,23.92,South,186,0.0,0.0,66,0.00,,CLR,0.00,VWS V14.01,2013-02-13 09:35:00,
2013-02-13 02:40:00,21.0,11.8,23.92,South,187,0.0,0.0,67,0.00,,,0.00,VWS V14.01,2013-02-13 09:40:00,
2013-02-13 02:45:00,21.2,12.0,23.89,South,187,0.0,0.0,67,0.00,,,0.00,VWS V14.01,2013-02-13 09:45:00,
2013-02-13 02:50:00,21.4,12.1,23.89,SSW,196,0.0,0.0,67,0.00,,CLR,0.00,VWS V14.01,2013-02-13 09:50:00,
2013-02-13 02:55:00,21.6,12.3,23.89,SSW,195,0.0,0.0,67,0.00,,CLR,0.00,VWS V14.01,2013-02-13 09:55:00,
2013-02-13 03:00:00,21.7,12.5,23.89,SSE,159,0.0,0.0,67,0.00,,CLR,0.00,VWS V14.01,2013-02-13 10:00:00,
2013-02-13 03:05:00,21.7,12.1,23.89,SSE,159,0.0,0.0,66,0.00,,CLR,0.00,VWS V14.01,2013-02-13 10:05:00,
2013-02-13 03:10:00,21.9,12.3,23.89,SSE,159,0.0,0.0,66,0.00,,CLR,0.00,VWS V14.01,2013-02-13 10:10:00,
2013-02-13 03:15:00,22.1,12.5,23.89,SSW,193,0.0,0.0,66,0.00,,CLR,0.00,VWS V14.01,2013-02-13 10:15:00,
2013-02-13 03:20:00,21.9,12.3,23.89,SSE,155,0.0,0.0,66,0.00,,CLR,0.00,VWS V14.01,2013-02-13 10:20:00,
2013-02-13 03:25:00,21.7,11.4,23.89,SSW,195,0.0,3.6,64,0.00,,CLR,0.00,VWS V14.01,2013-02-13 10:25:00,
2013-02-13 03:30:00,21.6,11.6,23.89,SSW,195,0.0,3.6,65,0.00,,CLR,0.00,VWS V14.01,2013-02-13 10:30:00,
2013-02-13 03:35:00,21.7,12.1,23.89,South,181,0.0,3.6,66,0.00,,CLR,0.00,VWS V14.01,2013-02-13 10:35:00,
2013-02-13 03:40:00,21.7,12.5,23.89,SSE,164,0.0,0.0,67,0.00,,CLR,0.00,VWS V14.01,2013-02-13 10:40:00,
2013-02-13 03:45:00,21.7,12.1,23.89,South,175,0.0,0.0,66,0.00,,CLR,0.00,VWS V14.01,2013-02-13 10:45:00,
2013-02-13 03:50:00,21.7,12.1,23.89,South,190,2.7,3.6,66,0.00,,CLR,0.00,VWS V14.01,2013-02-13 10:50:00,
2013-02-13 03:54:00,21.7,12.1,23.89,South,185,0.0,3.6,66,0.00,,CLR,0.00,VWS V14.01,2013-02-13 10:54:00,
2013-02-13 03:59:00,21.9,12.3,23.89,South,184,0.0,3.6,66,0.00,,CLR,0.00,VWS V14.01,2013-02-13 10:59:00,
2013-02-13 04:04:00,21.9,12.3,23.89,SSW,195,0.0,0.0,66,0.00,,CLR,0.00,VWS V14.01,2013-02-13 11:04:00,
2013-02-13 04:09:00,21.9,12.7,23.89,SSW,194,0.0,0.0,67,0.00,,CLR,0.00,VWS V14.01,2013-02-13 11:09:00,
2013-02-13 04:14:00,21.9,13.0,23.89,South,182,0.0,0.0,68,0.00,,CLR,0.00,VWS V14.01,2013-02-13 11:14:00,
2013-02-13 04:19:00,21.9,12.7,23.89,South,180,0.0,0.0,67,0.00,,CLR,0.00,VWS V14.01,2013-02-13 11:19:00,
2013-02-13 04:24:00,21.7,12.5,23.89,SSE,166,0.0,0.0,67,0.00,,CLR,0.00,VWS V14.01,2013-02-13 11:24:00,
2013-02-13 04:29:00,21.6,12.3,23.89,SSE,166,0.0,0.0,67,0.00,,CLR,0.00,VWS V14.01,2013-02-13 11:29:00,
2013-02-13 04:34:00,21.6,12.3,23.89,SSW,192,0.0,0.0,67,0.00,,CLR,0.00,VWS V14.01,2013-02-13 11:34:00,
2013-02-13 04:39:00,21.7,12.8,23.89,SSW,192,0.0,0.0,68,0.00,,CLR,0.00,VWS V14.01,2013-02-13 11:39:00,
2013-02-13 04:44:00,21.9,13.0,23.89,SSW,192,0.0,0.0,68,0.00,,CLR,0.00,VWS V14.01,2013-02-13 11:44:00,
2013-02-13 04:49:00,21.9,13.0,23.89,South,191,0.0,0.0,68,0.00,,CLR,0.00,VWS V14.01,2013-02-13 11:49:00,
2013-02-13 04:54:00,21.7,12.8,23.89,SSW,192,0.0,0.0,68,0.00,,CLR,0.00,VWS V14.01,2013-02-13 11:54:00,
2013-02-13 04:59:00,21.6,12.6,23.89,SSW,192,0.0,0.0,68,0.00,,CLR,0.00,VWS V14.01,2013-02-13 11:59:00,
2013-02-13 05:04:00,21.4,12.5,23.89,South,191,0.0,0.0,68,0.00,,CLR,0.00,VWS V14.01,2013-02-13 12:04:00,
2013-02-13 05:09:00,21.2,12.3,23.89,SSE,161,0.0,0.0,68,0.00,,,0.00,VWS V14.01,2013-02-13 12:09:00,
2013-02-13 05:14:00,21.2,12.6,23.89,SSW,193,0.0,0.0,69,0.00,,,0.00,VWS V14.01,2013-02-13 12:14:00,
2013-02-13 05:19:00,21.2,12.6,23.89,South,186,0.0,0.0,69,0.00,,,0.00,VWS V14.01,2013-02-13 12:19:00,
2013-02-13 05:24:00,21.4,12.8,23.89,South,191,0.0,0.0,69,0.00,,,0.00,VWS V14.01,2013-02-13 12:24:00,
2013-02-13 05:29:00,21.4,12.8,23.89,SSE,159,0.0,0.0,69,0.00,,,0.00,VWS V14.01,2013-02-13 12:29:00,
2013-02-13 05:34:00,21.4,12.8,23.89,South,186,0.0,0.0,69,0.00,,CLR,0.00,VWS V14.01,2013-02-13 12:34:00,
2013-02-13 05:39:00,21.4,12.5,23.89,SSE,157,0.0,0.0,68,0.00,,CLR,0.00,VWS V14.01,2013-02-13 12:39:00,
2013-02-13 05:44:00,21.4,12.8,23.89,SSE,148,3.1,3.1,69,0.00,,CLR,0.00,VWS V14.01,2013-02-13 12:44:00,
2013-02-13 05:49:00,21.6,13.0,23.89,South,186,0.0,3.1,69,0.00,,CLR,0.00,VWS V14.01,2013-02-13 12:49:00,
2013-02-13 05:54:00,21.6,13.0,23.89,South,186,0.0,3.1,69,0.00,,CLR,0.00,VWS V14.01,2013-02-13 12:54:00,
2013-02-13 05:59:00,21.4,12.5,23.89,South,186,0.0,3.1,68,0.00,,CLR,0.00,VWS V14.01,2013-02-13 12:59:00,
2013-02-13 06:04:00,21.2,12.6,23.89,South,186,0.0,0.0,69,0.00,,CLR,0.00,VWS V14.01,2013-02-13 13:04:00,
2013-02-13 06:09:00,21.2,12.6,23.89,South,186,0.0,0.0,69,0.00,,CLR,0.00,VWS V14.01,2013-02-13 13:09:00,
2013-02-13 06:14:00,20.8,12.3,23.89,South,178,0.0,0.0,69,0.00,,CLR,0.00,VWS V14.01,2013-02-13 13:14:00,
2013-02-13 06:19:00,20.8,12.6,23.89,South,178,0.0,0.0,70,0.00,,CLR,0.00,VWS V14.01,2013-02-13 13:19:00,
2013-02-13 06:24:00,20.8,12.6,23.89,South,178,0.0,0.0,70,0.00,,CLR,0.00,VWS V14.01,2013-02-13 13:24:00,
2013-02-13 06:29:00,21.0,12.8,23.89,South,178,0.0,0.0,70,0.00,,CLR,0.00,VWS V14.01,2013-02-13 13:29:00,
2013-02-13 06:34:00,20.8,12.6,23.89,South,178,0.0,0.0,70,0.00,,CLR,0.00,VWS V14.01,2013-02-13 13:34:00,
2013-02-13 06:39:00,20.7,12.4,23.89,South,177,0.0,0.0,70,0.00,,CLR,0.00,VWS V14.01,2013-02-13 13:39:00,
2013-02-13 06:44:00,20.7,12.4,23.89,South,177,0.0,0.0,70,0.00,,CLR,0.00,VWS V14.01,2013-02-13 13:44:00,
2013-02-13 06:49:00,20.7,12.8,23.89,South,177,0.0,0.0,71,0.00,,CLR,0.00,VWS V14.01,2013-02-13 13:49:00,
2013-02-13 06:54:00,20.7,12.8,23.89,South,177,0.0,0.0,71,0.00,,CLR,0.00,VWS V14.01,2013-02-13 13:54:00,
2013-02-13 06:59:00,20.8,12.9,23.89,South,177,0.0,0.0,71,0.00,,CLR,0.00,VWS V14.01,2013-02-13 13:59:00,
2013-02-13 07:04:00,20.8,12.9,23.89,South,177,0.0,0.0,71,0.00,,CLR,0.00,VWS V14.01,2013-02-13 14:04:00,
2013-02-13 07:09:00,20.5,12.3,23.89,South,177,0.0,0.0,70,0.00,,CLR,0.00,VWS V14.01,2013-02-13 14:09:00,
2013-02-13 07:14:00,20.3,12.1,23.89,South,177,0.0,0.0,70,0.00,,CLR,0.00,VWS V14.01,2013-02-13 14:14:00,
2013-02-13 07:19:00,20.3,12.4,23.89,South,177,0.0,0.0,71,0.00,,CLR,0.00,VWS V14.01,2013-02-13 14:19:00,
2013-02-13 07:24:00,20.5,12.6,23.89,SSW,193,0.0,0.0,71,0.00,,CLR,0.00,VWS V14.01,2013-02-13 14:24:00,
2013-02-13 07:34:00,20.5,12.6,23.92,SSW,193,0.0,0.0,71,0.00,,,0.00,VWS V14.01,2013-02-13 14:34:00,